GW0655 Weather Reports


time (UTC)temp
C
wind
direction
speed
KPH
gust
KPH
rain 1hr
cm
rain 24hr
cm
rain mn
cm
humidity
%
barometer
mb
20260904155149 29 179 4.8 8.0 0.00 0.00 0.00 77 1016.5
20260904154647 29 225 4.8 4.8 0.00 0.00 0.00 76 1016.5
20260904154142 28 186 4.8 4.8 0.00 0.00 0.00 77 1016.9
20260904153637 28 261 3.2 3.2 0.00 0.00 0.00 76 1016.5
20260904153132 28 242 4.8 4.8 0.00 0.00 0.00 76 1016.5
20260904152629 28 220 1.6 3.2 0.00 0.00 0.00 78 1016.5
20260904152124 28 243 3.2 3.2 0.00 0.00 0.00 80 1016.2
20260904151619 28 217 11.3 12.9 0.00 0.00 0.00 80 1016.2
20260904151117 28 208 4.8 8.0 0.00 0.00 0.00 82 1016.2
20260904150613 28 259 3.2 4.8 0.00 0.00 0.00 84 1016.2
20260904150109 28 272 3.2 4.8 0.00 0.00 0.00 84 1016.5
20260904145607 27 215 3.2 4.8 0.00 0.00 0.00 84 1016.2
20260904145102 27 244 0.0 0.0 0.00 0.00 0.00 85 1016.2
20260904144558 27 256 3.2 8.0 0.00 0.00 0.00 86 1016.5
20260904144054 27 262 1.6 1.6 0.00 0.00 0.00 86 1016.5
20260904143549 27 277 3.2 3.2 0.00 0.00 0.00 86 1016.2
20260904143046 27 237 4.8 4.8 0.00 0.00 0.00 87 1016.2
20260904142542 27 253 1.6 1.6 0.00 0.00 0.00 88 1016.2
20260904142037 27 191 3.2 3.2 0.00 0.00 0.00 88 1016.2
20260904141532 27 221 0.0 1.6 0.00 0.00 0.00 89 1016.2
20260904141028 27 248 1.6 3.2 0.00 0.00 0.00 89 1016.2
20260904140528 27 258 3.2 3.2 0.00 0.00 0.00 89 1016.2
20260904140022 27 217 6.4 8.0 0.00 0.00 0.00 89 1016.2
20260904135521 27 243 6.4 9.7 0.00 0.00 0.00 89 1015.8
20260904135018 27 279 4.8 8.0 0.00 0.00 0.00 89 1015.8
20260904134513 27 244 3.2 3.2 0.00 0.00 0.00 89 1016.2
20260904134007 27 216 3.2 4.8 0.00 0.00 0.00 88 1015.8
20260904133501 27 222 1.6 3.2 0.00 0.00 0.00 88 1016.2
20260904132957 27 194 1.6 3.2 0.00 0.00 0.00 88 1016.2
20260904132458 27 264 0.0 0.0 0.00 0.00 0.00 88 1016.2
20260904131952 27 266 1.6 1.6 0.00 0.00 0.00 88 1016.2
20260904131447 26 247 0.0 0.0 0.00 0.00 0.00 89 1016.2
20260904130943 26 287 1.6 3.2 0.00 0.00 0.00 89 1016.2
20260904130442 26 202 3.2 3.2 0.00 0.00 0.00 89 1015.8
20260904125937 26 218 3.2 3.2 0.00 0.00 0.00 89 1015.8
20260904125433 26 249 1.6 3.2 0.00 0.00 0.00 89 1015.8
20260904124932 26 220 1.6 1.6 0.00 0.00 0.00 90 1015.5
20260904124429 26 221 1.6 3.2 0.00 0.00 0.00 90 1015.8
20260904123924 26 242 1.6 1.6 0.00 0.00 0.00 89 1015.8
20260904123424 26 200 1.6 3.2 0.00 0.00 0.00 89 1015.5
20260904122920 26 178 1.6 3.2 0.00 0.00 0.00 89 1015.5
20260904122420 26 239 0.0 0.0 0.00 0.00 0.00 89 1015.5
20260904121914 26 219 1.6 1.6 0.00 0.00 0.00 89 1015.5
20260904121411 26 238 1.6 3.2 0.00 0.00 0.00 89 1015.5
20260904120907 26 224 1.6 1.6 0.00 0.00 0.00 89 1015.5
20260904120403 26 256 1.6 1.6 0.00 0.00 0.00 89 1015.2
20260904115857 26 204 4.8 4.8 0.00 0.00 0.00 89 1015.2
20260904115352 26 239 1.6 1.6 0.00 0.00 0.00 89 1015.2
20260904114847 26 237 1.6 3.2 0.00 0.00 0.00 89 1015.2
20260904114342 26 223 1.6 1.6 0.00 0.00 0.00 88 1015.2
20260904113837 26 227 3.2 3.2 0.00 0.00 0.00 88 1015.2
20260904113336 26 139 4.8 4.8 0.00 0.00 0.00 88 1015.2
20260904112832 26 202 1.6 1.6 0.00 0.00 0.00 88 1015.2
20260904112327 26 130 1.6 3.2 0.00 0.00 0.00 88 1015.2
20260904111822 26 169 6.4 9.7 0.00 0.00 0.00 88 1015.2
20260904111318 26 187 1.6 3.2 0.00 0.00 0.00 87 1015.2
20260904110814 26 181 4.8 8.0 0.00 0.00 0.00 88 1015.2
20260904110313 26 186 4.8 4.8 0.00 0.00 0.00 87 1015.2
20260904105807 26 157 3.2 3.2 0.00 0.00 0.00 87 1015.2
20260904105305 26 186 3.2 3.2 0.00 0.00 0.00 87 1015.2
20260904104757 26 201 3.2 4.8 0.00 0.00 0.00 87 1014.8
20260904104253 26 114 1.6 3.2 0.00 0.00 0.00 87 1014.8
20260904103749 26 139 4.8 8.0 0.00 0.00 0.00 87 1014.8
20260904103243 26 200 0.0 0.0 0.00 0.00 0.00 86 1014.8
20260904102739 26 178 1.6 3.2 0.00 0.00 0.00 86 1015.2
20260904102235 26 205 0.0 1.6 0.00 0.00 0.00 86 1014.8
20260904101731 26 212 0.0 1.6 0.00 0.00 0.00 86 1014.8
20260904101227 26 198 0.0 0.0 0.00 0.00 0.00 85 1014.8
20260904100722 26 245 0.0 0.0 0.00 0.00 0.00 85 1014.8
20260904100219 26 158 3.2 3.2 0.00 0.00 0.00 85 1014.8
20260904095717 26 166 1.6 1.6 0.00 0.00 0.00 85 1014.8
20260904095212 26 162 0.0 1.6 0.00 0.00 0.00 85 1014.5
20260904094707 26 229 1.6 1.6 0.00 0.00 0.00 85 1014.8
20260904094203 26 262 1.6 1.6 0.00 0.00 0.00 85 1014.8
20260904093659 26 222 1.6 3.2 0.00 0.00 0.00 85 1014.5
20260904093158 26 231 1.6 1.6 0.00 0.00 0.00 85 1014.5
20260904092655 27 245 0.0 1.6 0.00 0.00 0.00 85 1014.5
20260904092150 27 245 0.0 1.6 0.00 0.00 0.00 84 1014.5
20260904091647 27 239 0.0 0.0 0.00 0.00 0.00 84 1014.5
20260904091146 27 225 1.6 1.6 0.00 0.00 0.00 84 1014.5
20260904090642 27 196 3.2 3.2 0.00 0.00 0.00 84 1014.8
20260904090137 27 182 3.2 3.2 0.00 0.00 0.00 84 1014.5
20260904085637 27 213 1.6 1.6 0.00 0.00 0.00 84 1014.5
20260904085132 27 234 1.6 1.6 0.00 0.00 0.00 84 1014.5
20260904084627 27 239 1.6 1.6 0.00 0.00 0.00 84 1014.5
20260904084124 27 216 3.2 3.2 0.00 0.00 0.00 84 1014.5
20260904083620 27 237 0.0 1.6 0.00 0.00 0.00 83 1014.5
20260904083115 27 214 1.6 1.6 0.00 0.00 0.00 83 1014.5
20260904082610 27 257 0.0 0.0 0.00 0.00 0.00 83 1014.5
20260904082106 27 236 1.6 1.6 0.00 0.00 0.00 83 1014.5
20260904081601 27 237 3.2 3.2 0.00 0.00 0.00 83 1014.5
20260904081056 27 233 6.4 9.7 0.00 0.00 0.00 83 1014.5
20260904080552 27 201 1.6 1.6 0.00 0.00 0.00 83 1014.5
20260904080048 27 221 3.2 3.2 0.00 0.00 0.00 83 1014.5
20260904075543 27 238 1.6 1.6 0.00 0.00 0.00 82 1014.5
20260904075038 27 198 1.6 1.6 0.00 0.00 0.00 82 1014.5
20260904074537 27 209 1.6 1.6 0.00 0.00 0.00 82 1014.8
20260904074032 27 206 1.6 1.6 0.00 0.00 0.00 82 1014.5
20260904073527 27 213 1.6 3.2 0.00 0.00 0.00 82 1014.5
20260904073023 27 244 1.6 3.2 0.00 0.00 0.00 81 1014.8
20260904072519 27 223 1.6 1.6 0.00 0.00 0.00 81 1014.8
20260904072014 27 185 1.6 3.2 0.00 0.00 0.00 81 1015.2
20260904071509 27 203 6.4 8.0 0.00 0.00 0.00 81 1014.5
20260904071004 27 159 3.2 3.2 0.00 0.00 0.00 81 1014.8
20260904070503 27 183 4.8 4.8 0.00 0.00 0.00 81 1015.2
20260904065957 27 209 3.2 8.0 0.00 0.00 0.00 80 1014.8
20260904065453 27 218 4.8 4.8 0.00 0.00 0.00 80 1014.8
20260904064949 27 211 4.8 8.0 0.00 0.00 0.00 80 1015.2
20260904064445 27 237 1.6 1.6 0.00 0.00 0.00 80 1015.2
20260904063939 27 257 1.6 3.2 0.00 0.00 0.00 80 1015.2
20260904063436 27 223 1.6 1.6 0.00 0.00 0.00 80 1014.8
20260904062930 27 192 1.6 1.6 0.00 0.00 0.00 79 1014.8
20260904062427 27 210 1.6 1.6 0.00 0.00 0.00 79 1014.8
20260904061922 27 108 1.6 3.2 0.00 0.00 0.00 79 1015.2
20260904061419 27 240 3.2 3.2 0.00 0.00 0.00 79 1015.2
20260904060914 27 155 4.8 9.7 0.00 0.00 0.00 79 1014.8
20260904060410 27 233 3.2 3.2 0.00 0.00 0.00 79 1015.2
20260904055905 27 216 3.2 8.0 0.00 0.00 0.00 79 1015.2
20260904055401 27 151 3.2 4.8 0.00 0.00 0.00 79 1014.8
20260904054856 27 132 3.2 3.2 0.00 0.00 0.00 79 1014.8
20260904054352 27 249 4.8 4.8 0.00 0.00 0.00 79 1014.8
20260904053847 27 144 3.2 4.8 0.00 0.00 0.00 79 1015.2
20260904053347 27 198 1.6 3.2 0.00 0.00 0.00 79 1014.8
20260904052843 27 179 3.2 3.2 0.00 0.00 0.00 79 1014.8
20260904052339 27 241 6.4 9.7 0.00 0.00 0.00 79 1014.8
20260904051835 27 223 3.2 3.2 0.00 0.00 0.00 79 1014.8
20260904051331 27 223 4.8 9.7 0.00 0.00 0.00 79 1014.8
20260904050831 27 242 4.8 4.8 0.00 0.00 0.00 79 1014.8
20260904050328 27 225 3.2 3.2 0.00 0.00 0.00 79 1014.8
20260904045822 27 167 4.8 4.8 0.00 0.00 0.00 79 1014.8
20260904045317 27 253 0.0 1.6 0.00 0.00 0.00 79 1015.2
20260904044811 27 216 1.6 3.2 0.00 0.00 0.00 79 1014.8
20260904044308 27 218 3.2 8.0 0.00 0.00 0.00 79 1014.8
20260904043804 27 185 1.6 1.6 0.00 0.00 0.00 79 1014.8
20260904043300 27 146 3.2 4.8 0.00 0.00 0.00 79 1014.8
20260904042755 27 173 1.6 3.2 0.00 0.00 0.00 79 1014.5
20260904042251 27 206 4.8 4.8 0.00 0.00 0.00 79 1014.8
20260904041751 27 149 3.2 3.2 0.00 0.00 0.00 79 1014.8
20260904041247 27 197 3.2 3.2 0.00 0.00 0.00 79 1014.5
20260904040743 27 102 1.6 3.2 0.00 0.00 0.00 79 1014.8
20260904040238 27 149 4.8 4.8 0.00 0.00 0.00 79 1014.8
20260904035734 27 209 3.2 3.2 0.00 0.00 0.00 79 1014.5
20260904035230 27 149 4.8 4.8 0.00 0.00 0.00 78 1014.8
20260904034728 27 199 3.2 4.8 0.00 0.00 0.00 78 1014.8
20260904034224 27 252 3.2 4.8 0.00 0.00 0.00 78 1014.5
20260904033720 27 131 9.7 11.3 0.00 0.00 0.00 78 1014.8
20260904033217 27 147 4.8 4.8 0.00 0.00 0.00 78 1014.8
20260904032713 27 186 8.0 9.7 0.00 0.00 0.00 78 1014.5
20260904032212 27 104 3.2 4.8 0.00 0.00 0.00 78 1014.5
20260904031712 27 147 3.2 3.2 0.00 0.00 0.00 78 1014.5
20260904031207 27 175 4.8 8.0 0.00 0.00 0.00 77 1014.5
20260904030703 27 139 9.7 11.3 0.00 0.00 0.00 77 1014.5
20260904030157 27 169 6.4 11.3 0.00 0.00 0.00 77 1014.5
20260904025654 27 145 4.8 9.7 0.00 0.00 0.00 77 1014.5
20260904025149 27 117 3.2 4.8 0.00 0.00 0.00 76 1014.1
20260904024644 27 157 14.5 16.1 0.00 0.00 0.00 76 1014.1
20260904024140 27 121 4.8 11.3 0.00 0.00 0.00 75 1014.1
20260904023636 27 199 6.4 11.3 0.00 0.00 0.00 75 1014.1
20260904023132 28 120 8.0 11.3 0.00 0.00 0.00 74 1014.5
20260904022631 28 169 1.6 3.2 0.00 0.00 0.00 74 1014.1
20260904022128 28 275 3.2 4.8 0.00 0.00 0.00 73 1014.1
20260904021624 28 139 4.8 4.8 0.00 0.00 0.00 73 1013.8
20260904021119 28 187 6.4 8.0 0.00 0.00 0.00 73 1013.8
20260904020614 28 181 6.4 11.3 0.00 0.00 0.00 72 1013.5
20260904015557 28 208 6.4 9.7 0.00 0.00 0.00 71 1013.5
20260904015055 28 146 6.4 9.7 0.00 0.00 0.00 71 1013.5
20260904014550 28 143 9.7 11.3 0.00 0.00 0.00 70 1013.5
20260904014045 28 150 4.8 8.0 0.00 0.00 0.00 70 1013.1
20260904013542 28 165 9.7 14.5 0.00 0.00 0.00 68 1013.1
20260904013033 28 239 3.2 4.8 0.00 0.00 0.00 68 1012.7
20260904012532 29 101 12.9 16.1 0.00 0.00 0.00 68 1013.1
20260904012026 29 140 9.7 12.9 0.00 0.00 0.00 67 1013.1
20260904011526 29 166 6.4 9.7 0.00 0.00 0.00 67 1013.1
20260904011021 29 48 3.2 4.8 0.00 0.00 0.00 66 1013.1
20260904010518 30 132 3.2 4.8 0.00 0.00 0.00 65 1013.1
20260904010013 30 194 11.3 17.7 0.00 0.00 0.00 64 1013.5
20260904005508 30 173 8.0 9.7 0.00 0.00 0.00 64 1013.1
20260904005003 30 164 8.0 11.3 0.00 0.00 0.00 64 1013.1
20260904004459 30 126 3.2 4.8 0.00 0.00 0.00 64 1013.1
20260904003959 30 139 11.3 12.9 0.00 0.00 0.00 64 1013.1
20260904003455 30 165 1.6 3.2 0.00 0.00 0.00 64 1013.1
20260904002950 30 153 4.8 9.7 0.00 0.00 0.00 64 1013.1
20260904002446 30 182 11.3 12.9 0.00 0.00 0.00 64 1013.1
20260904001945 30 183 11.3 12.9 0.00 0.00 0.00 63 1013.1
20260904001441 30 118 8.0 11.3 0.00 0.00 0.00 63 1013.1
20260904000935 30 171 11.3 14.5 0.00 0.00 0.00 64 1013.1
20260904000435 30 143 8.0 9.7 0.00 0.00 0.00 64 1013.1
20260903235930 31 160 8.0 12.9 0.00 0.00 0.00 63 1013.1
20260903235426 31 177 4.8 9.7 0.00 0.00 0.00 62 1013.1
20260903234926 31 85 12.9 14.5 0.00 0.00 0.00 62 1012.7
20260903234422 31 119 6.4 9.7 0.00 0.00 0.00 62 1012.7
20260903233918 31 148 6.4 11.3 0.00 0.00 0.00 62 1012.7
20260903233413 31 181 8.0 9.7 0.00 0.00 0.00 62 1012.7
20260903232908 31 115 4.8 9.7 0.00 0.00 0.00 62 1012.7
20260903232403 31 121 8.0 12.9 0.00 0.00 0.00 61 1012.7
20260903231902 31 2 4.8 4.8 0.00 0.00 0.00 61 1012.7
20260903231357 31 163 8.0 11.3 0.00 0.00 0.00 62 1012.4
20260903230853 32 146 22.5 27.4 0.00 0.00 0.00 61 1012.7
20260903230348 32 135 1.6 3.2 0.00 0.00 0.00 61 1012.4
20260903225844 32 145 9.7 12.9 0.00 0.00 0.00 62 1012.4
20260903225340 32 153 3.2 4.8 0.00 0.00 0.00 62 1012.4
20260903224836 31 242 8.0 11.3 0.00 0.00 0.00 63 1012.4
20260903224332 32 121 17.7 22.5 0.00 0.00 0.00 63 1012.4
20260903223828 32 137 12.9 17.7 0.00 0.00 0.00 61 1012.4
20260903223326 33 180 14.5 17.7 0.00 0.00 0.00 60 1012.0
20260903222821 34 180 8.0 11.3 0.00 0.00 0.00 56 1012.4
20260903222321 35 133 12.9 20.9 0.00 0.00 0.00 48 1012.0
20260903221815 36 111 9.7 11.3 0.00 0.00 0.00 46 1011.7
20260903221314 35 127 4.8 8.0 0.00 0.00 0.00 47 1011.7
20260903220812 35 92 14.5 22.5 0.00 0.00 0.00 48 1011.7
20260903220307 35 204 16.1 20.9 0.00 0.00 0.00 47 1012.0
20260903215805 35 106 11.3 12.9 0.00 0.00 0.00 47 1011.7
20260903215305 36 124 11.3 16.1 0.00 0.00 0.00 46 1011.7
20260903214759 36 206 3.2 3.2 0.00 0.00 0.00 46 1011.7
20260903214250 36 155 11.3 12.9 0.00 0.00 0.00 46 1012.0
20260903213744 36 77 14.5 17.7 0.00 0.00 0.00 45 1011.7
20260903213240 36 172 6.4 9.7 0.00 0.00 0.00 45 1011.7
20260903212736 36 136 11.3 12.9 0.00 0.00 0.00 45 1012.0
20260903212233 36 59 3.2 4.8 0.00 0.00 0.00 45 1012.0
20260903211731 37 171 8.0 9.7 0.00 0.00 0.00 45 1011.7
20260903211228 37 90 4.8 4.8 0.00 0.00 0.00 44 1012.0
20260903210724 38 138 6.4 11.3 0.00 0.00 0.00 43 1012.0
20260903210219 37 140 8.0 9.7 0.00 0.00 0.00 43 1012.0
20260903205718 38 151 4.8 4.8 0.00 0.00 0.00 43 1012.4
20260903205217 37 302 0.0 1.6 0.00 0.00 0.00 43 1012.0
20260903204713 37 171 4.8 4.8 0.00 0.00 0.00 43 1012.0
20260903204210 37 140 6.4 9.7 0.00 0.00 0.00 44 1012.4
20260903203705 37 37 0.0 1.6 0.00 0.00 0.00 42 1012.4
20260903203200 37 253 0.0 1.6 0.00 0.00 0.00 42 1012.4
20260903202654 37 175 1.6 3.2 0.00 0.00 0.00 44 1012.7
20260903202151 37 156 3.2 3.2 0.00 0.00 0.00 45 1012.7
20260903201649 37 186 4.8 4.8 0.00 0.00 0.00 44 1012.7
20260903201144 37 122 6.4 9.7 0.00 0.00 0.00 44 1012.7
20260903200639 37 181 3.2 4.8 0.00 0.00 0.00 45 1013.1
20260903200134 37 265 4.8 4.8 0.00 0.00 0.00 45 1012.7
20260903195630 37 113 1.6 3.2 0.00 0.00 0.00 45 1013.1
20260903195126 37 207 3.2 3.2 0.00 0.00 0.00 44 1013.1
20260903194621 37 233 3.2 4.8 0.00 0.00 0.00 45 1012.7
20260903194121 37 340 1.6 1.6 0.00 0.00 0.00 44 1013.1
20260903193617 37 170 3.2 3.2 0.00 0.00 0.00 44 1013.1
20260903193112 37 160 3.2 3.2 0.00 0.00 0.00 45 1013.1
20260903192608 37 113 6.4 9.7 0.00 0.00 0.00 44 1013.5
20260903192103 37 246 0.0 0.0 0.00 0.00 0.00 45 1013.5
20260903191559 38 172 3.2 8.0 0.00 0.00 0.00 43 1013.5
20260903191054 38 223 3.2 4.8 0.00 0.00 0.00 44 1013.5
20260903190554 37 276 0.0 1.6 0.00 0.00 0.00 46 1013.5
20260903190053 37 149 4.8 12.9 0.00 0.00 0.00 45 1013.5
20260903185549 36 193 4.8 4.8 0.00 0.00 0.00 47 1013.8
20260903185044 36 152 9.7 12.9 0.00 0.00 0.00 47 1013.8
20260903184540 37 174 3.2 3.2 0.00 0.00 0.00 47 1013.8
20260903184035 36 238 0.0 0.0 0.00 0.00 0.00 47 1014.1
20260903183534 36 179 3.2 4.8 0.00 0.00 0.00 47 1014.1
20260903183030 36 221 6.4 9.7 0.00 0.00 0.00 47 1014.5
20260903182528 36 301 4.8 4.8 0.00 0.00 0.00 48 1014.5
20260903182024 36 171 3.2 3.2 0.00 0.00 0.00 48 1014.5
20260903181518 36 172 1.6 3.2 0.00 0.00 0.00 48 1014.5
20260903181017 36 107 0.0 1.6 0.00 0.00 0.00 48 1014.5
20260903180513 35 192 1.6 1.6 0.00 0.00 0.00 49 1014.5
20260903180012 35 229 3.2 8.0 0.00 0.00 0.00 49 1014.5
20260903175511 35 287 3.2 3.2 0.00 0.00 0.00 49 1014.5
20260903175010 36 264 8.0 12.9 0.00 0.00 0.00 48 1014.8
20260903174506 35 196 4.8 4.8 0.00 0.00 0.00 49 1014.8
20260903174000 35 184 6.4 9.7 0.00 0.00 0.00 49 1014.8
20260903173455 35 202 1.6 3.2 0.00 0.00 0.00 51 1014.8
20260903172951 35 179 3.2 8.0 0.00 0.00 0.00 52 1015.2
20260903172446 34 195 8.0 11.3 0.00 0.00 0.00 53 1014.8
20260903171942 35 233 6.4 9.7 0.00 0.00 0.00 52 1015.2
20260903171437 35 217 8.0 11.3 0.00 0.00 0.00 53 1015.2
20260903170936 35 203 8.0 11.3 0.00 0.00 0.00 53 1014.8
20260903170431 35 166 3.2 4.8 0.00 0.00 0.00 53 1015.2
20260903165930 35 228 14.5 14.5 0.00 0.00 0.00 54 1015.2
20260903165425 33 312 1.6 1.6 0.00 0.00 0.00 55 1015.2
20260903164925 34 234 9.7 12.9 0.00 0.00 0.00 55 1015.2
20260903164419 35 173 4.8 8.0 0.00 0.00 0.00 54 1015.2
20260903163914 33 224 3.2 4.8 0.00 0.00 0.00 58 1015.2
20260903163410 33 241 12.9 17.7 0.00 0.00 0.00 56 1015.2
20260903162906 33 218 8.0 9.7 0.00 0.00 0.00 58 1015.5
20260903162402 32 248 6.4 12.9 0.00 0.00 0.00 58 1015.5
20260903161857 33 261 4.8 11.3 0.00 0.00 0.00 57 1015.2
20260903161352 33 197 14.5 22.5 0.00 0.00 0.00 58 1015.5
20260903160848 33 182 11.3 12.9 0.00 0.00 0.00 58 1015.2
20260903160347 33 236 6.4 9.7 0.00 0.00 0.00 58 1015.2
20260903155846 33 184 6.4 8.0 0.00 0.00 0.00 61 1015.2